{"data":{"norad_id":68457,"intl_designator":"2026-067AT","name":"TRANSPORTER-16 OBJECT AT","alt_names":[],"object_type":"PAYLOAD","status":"ACTIVE","operator":null,"country":"TBD","launch_date":"2026-03-30","launch_site_code":"AFWTR","launch_vehicle":null,"mission":null,"orbit_class":"UNKNOWN","rcs_meters":null,"size_class":null,"mass_kg":null,"dimensions":null,"purposes":[],"wikipedia_slug":null,"has_3d_model":false,"image_url":null,"decayed_at":null,"tle_current":{"epoch":"2026-05-24T20:29:51.527904Z","epoch_age_seconds":98142,"freshness":"FRESH","line1":"1 68457U 26067AT  26144.85406861  .00008694  00000+0  41893-3 0  9990","line2":"2 68457  97.4532 103.7083 0003856  81.7364 278.4307 15.18961763  8405","mean_motion":15.18961763,"eccentricity":0.0003856,"inclination_deg":97.4532,"raan_deg":103.7083,"arg_perigee_deg":81.7364,"mean_anomaly_deg":278.4307,"bstar":0.00041893,"rev_number":840,"period_min":94.801596398052,"perigee_km":506.32146489395,"apogee_km":511.63280731571,"semimajor_km":6887.1141361048,"source":"CELESTRAK","updated_at":"2026-05-25T13:38:07.844422Z"}}}